Regional Weather Roundup
Issued by NWS Goodland, KS

Home | Current Version | Previous Version | Text Only | Print | Product List | Glossary Off
Versions: 1 2 3 4 5 6 7 8 9 10 11 12 13 14 15 16 17 18 19 20 21 22 23 24 25 26 27 28 29 30 31 32 33 34 35 36 37 38 39 40 41 42 43 44 45 46 47 48 49 50

000
ASUS43 KGLD 201459
RWRGLD

GOODLAND FORECAST AREA HOURLY WEATHER ROUNDUP
NATIONAL WEATHER SERVICE GOODLAND KS
900 AM MDT SUN AUG 20 2017

...OFFICIAL OBSERVATIONS...

CITY           SKY/WX    TMP DP  RH WIND       PRES   REMARKS
GOODLAND KS    SUNNY     78  59  51 CALM      29.98R
HILL CITY KS   SUNNY     82  66  58 SW9       29.91S
IMPERIAL NEB   MOSUNNY   74  62  66 N15       29.96S
MCCOOK NEB     SUNNY     74  59  59 NE3       29.94R
AKRON CO       CLOUDY    71  43  36 NW8       30.07R
BURLINGTON CO  SUNNY     79  58  48 W7        30.01R
LIMON CO       CLOUDY    76  51  41 NW8       30.10R
$$

...UNOFFICIAL OBSERVATIONS...

CITY           SKY/WX    TMP DP  RH WIND       PRES   REMARKS
LENORA KS        N/A     79  32  18 SW5         N/A
NORTON KS      SUNNY     79  57  47 S9        29.91S
TRENTON NEB      N/A     73  32  22 NW7         N/A
KIT CARSON CO    N/A     76  53  44 MISG        N/A
YUMA CO        FAIR      70  37  30 NW9       30.02S
$$




USA.gov is the U.S. government's official web portal to all federal, state and local government web resources and services.